358  
ASUS43 KOAX 181010  
RWRNE  
 
WEATHER ROUNDUP FOR NEBRASKA  
NATIONAL WEATHER SERVICE OMAHA NE  
500 AM CDT FRI SEP 18 2020  
 
NOTES: SATELLITE DATA IS BEING USED TO AUGMENT CLOUD COVER ABOVE  
12000 FEET.  
"FAIR" INDICATES FEW OR NO CLOUDS BELOW 12,000 FEET WITH NO  
SIGNIFICANT WEATHER AND/OR S TO VISIBILITY
.  
 
 
NEZ001>004-019>022-054>056-181100-  
NEBRASKA PANHANDLE  
 
CITY SKY/WX TMP DP RH WIND PRES REMARKS
 
SCOTTSBLUFF FAIR 46 43 89 NW5 30.28S  
ALLIANCE FAIR 39 37 92 W3 30.27S  
CHADRON FAIR 42 41 96 SW5 30.27S  
GORDON FAIR 40 39 96 W3 30.27S  
KIMBALL FAIR 47 44 88 NW5 30.30F  
SIDNEY FAIR 47 42 83 N3 30.26S  

 
 
NEZ057>060-069>072-079>082-181100-  
SOUTHWEST NEBRASKA  
 
CITY SKY/WX TMP DP RH WIND PRES REMARKS
 
NORTH PLATTE FAIR 53 50 89 E3 30.23R  
IMPERIAL FAIR 50 49 96 NE5 30.21R  
LEXINGTON FAIR 54 52 92 E7 30.24S  
MCCOOK FAIR 54 50 86 SE6 30.21F FOG  
OGALLALA FAIR 52 49 89 CALM 30.23S  

 
 
NEZ005>010-023>029-035>040-094-181100-  
NORTH CENTRAL NEBRASKA  
 
CITY SKY/WX TMP DP RH WIND PRES REMARKS
 
VALENTINE FAIR 49 45 86 NE6 30.25S  
AINSWORTH FAIR 48 48 99 E5 30.26R  
BROKEN BOW FAIR 52 50 93 E3 30.25S  
O'NEILL MOCLDY 52 43 72 E8 30.30S  
ORD FAIR 48 46 93 CALM 30.26R  
THEDFORD FOG 47 47 99 CALM 30.25S VSB 1  

 
 
NEZ041-046>049-061>064-073>077-083>087-181100-  
SOUTH CENTRAL NEBRASKA  
 
CITY SKY/WX TMP DP RH WIND PRES REMARKS
 
GRAND ISLAND MOCLDY 53 49 86 CALM 30.27R  
AURORA MOCLDY 53 51 94 E3 30.27S  
HASTINGS CLOUDY 58 49 72 SE9 30.27R  
HEBRON FAIR 49 49 97 CALM 30.27R  
HOLDREGE MOCLDY 53 51 93 SE5 30.25R  
KEARNEY MOCLDY 52 50 93 E6 30.26S  
YORK FAIR 50 48 93 CALM 30.28R  

 
 
NEZ011>018-030>034-042>045-181100-  
NORTHEAST NEBRASKA  
 
CITY SKY/WX TMP DP RH WIND PRES REMARKS
 
NORFOLK MOCLDY 52 40 63 E7 30.31R  
ALBION CLOUDY 51 44 75 E6 30.30R  
BLAIR FAIR 50 41 72 NE10 30.31R HAZE  
COLUMBUS FAIR 50 43 77 E7 30.31R  
FREMONT FAIR 52 42 69 E6 30.31S  
TEKAMAH CLOUDY 49 44 83 CALM 30.32R  
WAYNE CLOUDY 52 41 65 E6 30.32S  

 
 
NEZ050>053-065>068-078-088>093-181100-  
SOUTHEAST NEBRASKA  
 
CITY SKY/WX TMP DP RH WIND PRES REMARKS
 
LINCOLN CLOUDY 53 47 79 NE5 30.30R  
OMAHA EPPLEY FAIR 52 41 66 N3 30.31R  
BEATRICE FAIR 52 49 89 CALM 30.27R  
FALLS CITY FAIR 52 47 83 NE5 30.26R  
NEBRASKA CITY FAIR 49 49 98 NE3 30.29R  
PLATTSMOUTH FAIR 49 44 81 NE6 30.30R  

 
 
NEZ044-045-051>053-067-181100-  
OMAHA AREA  
 
CITY SKY/WX TMP DP RH WIND PRES REMARKS
 
OMAHA EPPLEY FAIR 52 41 66 N3 30.31R  
BLAIR FAIR 50 41 72 NE10 30.31R HAZE  
FREMONT FAIR 52 42 69 E6 30.31S  
MILLARD FAIR 54 40 59 CALM 30.30S  
OFFUTT AFB FAIR 50 41 71 NE7 30.30R  
PLATTSMOUTH FAIR 49 44 81 NE6 30.30R  
WAHOO PTSUNNY 52 44 74 E6 30.30R  

 
 
 
CLICK HERE TO GO TO PREVIOUS BULLETINS.

The Nexlab NE Page Main Text Page